Location: D�derode
(51.8092°N, 10.1065°E)
Time: 20:20:02
(UTC+00:00)

X-37B - Visible Passes

Search period start: 13 April 2021 00:00
Search period end: 23 April 2021 00:00
Orbit: 380 x 394 km, 45.0° (Epoch: 07 April)

Date Brightness Start Highest point End Pass type
(mag) Time Alt. Az. Time Alt. Az. Time Alt. Az.
16 Apr 3.1 03:37:26 10° S 03:39:02 13° SSE 03:40:37 10° SE visible
18 Apr 2.6 03:16:29 10° SSW 03:18:40 17° SSE 03:20:51 10° ESE visible
19 Apr 2.9 02:20:32 13° SSE 02:20:33 13° SSE 02:22:11 10° SE visible
20 Apr 2.3 02:56:51 16° SSW 02:58:20 21° S 03:00:50 10° ESE visible
21 Apr 2.7 02:00:54 16° SE 02:00:54 16° SE 02:02:24 10° ESE visible
22 Apr 2.0 02:37:13 21° SSW 02:38:01 23° S 02:40:39 10° ESE visible
